Wind_Speed
76 76 74 73 73 72 70 68 64 64 65 66 66 66 65 63 61 60 58 56 54 53 52 52 51 50 49 48 48 47 47 47 45 43 42 40 40 41 41 42 42 42 43 44 43 41 41 41 42 43 44 45 44 43 40 38 36 35 33 32 31 32 32 33 34 34 35 35 36 37 38 39 40 41 41 42 43 44 45 45 46 47 48 48 49 49
75 75 76 77 76 73 69 66 64 64 66 66 67 67 67 66 64 62 60 58 57 55 54 52 51 51 50 48 48 47 48 49 46 44 43 42 41 42 42 42 42 43 44 45 44 43 42 42 42 43 45 46 46 45 44 42 41 40 37 35 34 34 35 36 36 36 36 36 37 37 38 39 40 41 41 42 43 44 45 46 46 47 47 48 49 49
73 73 77 79 77 74 70 67 65 65 67 68 68 68 68 67 66 64 62 61 59 57 55 52 50 52 52 49 47 47 48 50 48 46 45 43 42 43 43 43 43 44 45 46 45 45 44 43 43 43 45 46 47 47 47 46 46 44 42 40 38 38 38 38 38 38 38 38 38 39 39 40 41 42 43 43 44 45 45 46 46 46 46 46 47 47
75 75 76 76 76 74 72 69 67 67 68 68 68 68 67 67 66 65 64 62 61 57 55 52 51 53 53 49 48 47 48 51 50 48 47 44 44 44 44 44 45 46 46 47 48 47 46 44 43 44 46 48 48 48 49 49 49 47 46 44 42 42 41 41 40 40 40 41 41 42 42 42 43 43 44 44 45 45 46 46 45 45 45 45 45 45
80 79 77 74 74 73 72 71 69 69 69 69 69 69 68 67 65 63 62 61 59 56 54 53 53 55 55 51 50 48 48 51 51 50 49 47 47 46 46 47 47 48 49 50 50 49 47 45 44 45 47 49 49 49 50 51 51 50 49 47 46 45 44 44 43 43 43 44 45 45 45 45 45 45 45 46 46 47 47 46 46 46 45 46 46 46
82 80 77 74 73 73 72 71 70 70 70 70 71 70 70 69 67 64 62 60 59 56 56 56 54 55 56 54 53 51 50 51 53 53 53 51 51 50 49 50 50 51 52 52 52 50 48 46 46 48 50 51 51 51 51 52 52 52 51 50 49 48 47 47 47 46 46 46 47 48 48 47 47 47 47 47 48 48 48 48 48 48 47 47 47 47
83 81 79 77 75 74 74 73 73 72 72 72 72 72 72 71 70 67 65 63 60 59 59 58 55 55 58 57 56 55 54 54 55 57 57 56 55 53 53 53 53 54 55 55 53 51 49 49 49 51 53 54 54 53 52 53 53 53 52 52 51 51 50 50 50 49 49 49 50 50 50 50 49 50 50 50 51 51 51 51 51 50 50 49 49 49
85 83 81 80 78 77 76 76 76 75 74 73 73 73 73 72 70 69 68 65 62 60 59 58 56 56 59 61 60 58 58 59 59 60 59 58 58 57 56 55 54 55 56 56 55 54 52 52 53 55 56 56 56 55 54 54 54 53 53 53 52 52 53 53 52 52 51 52 52 52 52 52 52 52 53 53 54 54 54 54 53 53 53 52 51 51
86 85 84 83 82 80 79 78 78 77 75 74 73 72 71 70 69 68 67 64 62 61 59 59 58 56 58 62 61 58 60 62 62 61 60 60 60 59 59 57 56 56 57 57 56 55 54 55 57 58 58 58 58 57 56 55 55 55 55 55 54 54 55 55 55 54 53 54 54 54 55 55 54 55 56 56 57 56 56 56 56 55 55 55 54 54
87 86 86 85 84 82 81 80 79 78 76 75 74 73 71 70 69 68 67 65 64 62 61 62 61 56 57 63 62 59 61 64 63 62 61 61 61 61 61 60 59 58 57 57 57 56 57 59 60 61 61 60 59 58 57 57 57 57 57 57 56 56 57 57 57 56 55 56 56 57 57 57 57 57 58 59 59 59 59 59 59 58 58 57 57 57
87 86 86 85 84 84 83 81 80 79 78 77 76 75 74 73 72 71 70 68 66 63 62 64 63 58 56 61 65 63 64 66 65 64 63 63 63 63 64 63 62 61 59 58 58 58 60 62 64 64 63 62 60 59 59 58 58 58 59 59 59 58 58 59 59 59 58 57 58 59 59 60 60 60 61 61 61 61 61 62 61 61 61 60 60 60
87 87 86 85 85 85 84 84 83 83 82 81 80 79 79 77 76 74 72 71 68 64 64 66 66 61 56 61 69 69 69 70 69 68 66 66 66 66 66 65 64 63 61 60 60 61 64 66 67 66 66 64 62 61 61 60 60 60 61 61 61 61 60 61 61 61 60 59 60 61 62 62 63 63 63 64 64 64 64 65 65 65 64 64 64 64
87 87 87 86 86 86 86 86 86 86 86 85 85 85 84 83 81 78 76 74 71 68 69 69 69 65 60 63 70 73 74 74 72 71 70 69 68 68 67 66 65 64 63 63 63 65 67 68 69 68 68 67 65 64 64 63 63 63 63 63 64 63 63 63 63 62 62 62 62 63 64 64 65 65 65 65 66 67 67 67 68 68 68 68 68 68
89 89 88 87 87 87 88 88 88 88 88 88 88 89 89 88 85 82 80 78 75 73 73 72 71 68 64 65 68 72 75 75 74 74 73 71 70 69 68 67 67 66 65 65 66 67 69 70 70 70 69 69 68 67 66 66 66 66 66 66 66 65 64 64 64 63 63 63 64 65 66 67 66 66 67 67 68 68 69 70 70 71 71 71 72 71
91 90 89 88 88 88 89 90 91 91 91 91 90 90 89 87 86 83 82 80 78 77 75 74 73 69 67 67 67 69 73 76 77 76 75 74 72 70 70 70 69 68 67 67 69 70 71 72 72 71 71 70 69 69 69 68 68 68 68 68 67 67 66 66 65 64 64 65 65 66 67 68 68 68 69 69 70 70 71 72 73 74 74 74 75 75
91 90 90 90 90 90 91 91 92 92 91 90 89 88 86 86 86 84 83 82 81 80 78 75 73 70 69 69 68 68 71 74 77 78 78 77 75 73 72 71 71 70 71 72 73 74 74 74 73 73 72 72 71 71 70 70 70 69 69 69 69 69 68 67 67 67 67 67 67 68 68 68 69 70 71 72 73 73 74 74 75 76 77 77 78 78
91 91 91 91 91 91 91 92 92 91 90 89 88 86 86 87 87 86 85 84 83 81 78 76 73 72 72 71 70 70 70 73 76 78 80 79 78 76 75 74 73 73 74 76 77 77 77 76 76 75 74 73 73 72 72 71 70 70 70 70 70 69 69 69 68 68 69 69 69 70 70 70 71 73 74 75 75 76 76 77 78 79 79 80 80 81
95 95 95 95 95 95 94 95 94 93 92 90 88 87 88 89 89 88 86 85 84 82 79 77 75 74 74 73 72 72 71 72 74 77 79 80 79 79 78 77 77 78 79 80 80 80 79 79 78 77 76 75 74 74 73 72 71 71 71 70 70 70 70 70 69 70 70 71 71 72 72 73 74 75 76 77 78 78 79 79 80 81 82 83 83 83
96 97 97 97 98 98 98 98 97 95 94 92 90 90 91 91 89 89 88 86 85 84 81 79 77 76 75 74 74 74 73 73 74 75 77 78 79 80 80 81 81 82 83 83 82 82 81 81 79 78 77 76 75 74 74 73 72 72 71 70 70 70 71 71 71 71 72 73 73 74 75 76 77 77 78 79 79 80 81 82 82 82 84 85 85 85
96 96 97 96 97 98 99 98 96 94 93 93 92 92 92 92 91 90 90 88 87 86 83 81 79 77 76 75 76 75 75 75 74 75 76 77 79 80 82 83 84 84 84 84 84 84 83 83 81 79 78 77 76 75 74 74 73 72 71 71 71 72 72 73 73 74 75 76 77 78 79 80 80 81 81 81 81 82 83 84 84 85 85 86 86 87
99 99 99 98 99 99 98 96 94 93 94 94 94 94 93 93 93 92 92 91 89 88 86 83 80 77 77 77 77 77 77 76 75 75 76 78 79 81 82 84 85 86 86 86 86 86 86 85 83 81 80 79 78 77 76 75 74 74 73 73 73 74 75 76 77 78 79 80 81 82 83 84 84 84 84 83 84 84 85 86 87 87 88 88 88 88
100 100 100 100 100 99 97 97 96 97 98 98 98 97 96 95 95 95 94 92 91 90 88 86 82 78 77 78 77 77 77 76 76 77 78 80 81 83 83 84 86 87 88 89 89 89 89 87 85 84 83 82 80 79 77 76 75 75 75 75 76 77 78 79 81 81 82 83 85 85 86 87 86 86 86 86 86 87 88 88 89 90 89 89 89 89
103 103 103 102 101 100 100 100 100 101 101 101 100 98 97 96 96 95 94 93 92 92 90 88 84 78 76 77 77 77 77 78 79 80 81 82 83 84 85 86 87 88 90 91 91 91 91 89 87 85 84 83 82 80 79 78 77 77 77 78 79 80 82 83 84 85 85 86 87 87 88 88 88 89 89 89 90 90 91 91 91 91 91 90 91 91
105 106 105 105 105 104 104 104 103 103 103 101 100 98 97 97 96 96 96 95 94 93 90 90 86 80 76 75 75 76 78 79 81 82 83 84 86 87 88 89 89 89 90 90 91 91 90 89 86 85 84 84 83 82 81 81 81 81 81 81 82 83 84 86 87 87 87 88 88 89 90 91 92 93 93 94 94 94 94 94 93 93 93 93 93 93
105 106 106 106 106 106 106 105 103 102 101 99 98 96 96 96 97 97 97 97 96 93 91 91 88 81 78 76 75 76 79 81 83 84 84 84 86 88 89 89 89 89 89 89 89 88 87 86 85 85 85 84 84 84 84 84 84 83 83 84 84 85 86 88 89 89 90 91 91 92 94 95 96 97 97 97 97 97 96 96 96 95 95 96 96 96
106 106 105 105 105 105 104 102 99 98 98 98 97 96 96 97 98 99 99 100 98 93 92 93 88 82 80 78 78 79 80 82 83 85 85 84 85 86 87 88 88 89 90 90 88 85 84 84 83 83 84 84 84 85 85 86 86 86 86 87 88 89 90 91 92 93 94 95 95 96 97 97 98 99 99 99 99 99 98 98 98 98 98 99 99 99
107 106 105 105 103 102 100 99 99 100 102 102 101 100 101 102 102 103 103 102 98 93 93 93 88 83 80 80 81 81 81 82 83 85 87 87 86 86 87 89 90 90 90 89 87 85 83 83 83 83 83 84 84 85 86 87 87 88 89 90 91 92 93 94 95 96 97 98 99 99 99 99 100 100 100 100 100 100 100 100 100 100 100 101 101 101
107 107 106 105 104 102 101 101 102 103 103 103 102 102 102 102 103 103 102 99 94 94 94 91 88 86 83 83 85 84 83 84 84 85 86 87 87 87 88 90 91 91 90 89 88 86 85 84 84 84 85 86 86 87 88 89 89 90 91 93 94 95 96 96 97 99 100 100 101 101 101 101 101 101 101 101 101 101 102 102 102 102 102 103 103 104
107 106 106 105 105 104 103 104 104 104 105 105 104 104 104 104 104 104 101 98 96 98 97 92 91 91 88 87 87 86 86 87 86 86 86 86 87 89 89 90 91 91 91 91 90 89 88 87 87 87 88 89 89 90 91 93 94 95 96 97 98 99 100 101 101 101 102 102 103 103 103 103 103 103 103 103 104 104 105 105 105 105 105 106 106 107
108 107 106 106 105 105 105 105 105 105 106 106 106 106 106 106 106 104 102 100 101 102 100 96 95 94 91 89 88 87 89 91 91 92 91 89 89 89 91 92 93 93 94 93 93 92 92 92 92 93 94 94 94 95 96 97 98 99 100 101 102 102 103 103 103 103 103 104 105 105 106 106 107 107 107 108 108 108 108 109 109 109 109 109 109 110
110 109 108 108 107 107 106 106 106 106 107 107 107 107 106 106 105 103 102 102 103 104 102 101 100 96 92 92 92 92 94 97 98 98 96 94 93 93 93 94 95 96 96 96 97 97 97 98 99 99 100 101 101 101 101 101 102 102 103 103 104 104 105 105 105 105 105 106 107 108 109 109 110 110 110 111 111 112 112 112 112 112 112 113 113 113
113 112 111 111 110 109 108 108 109 109 110 110 109 107 105 103 103 103 104 105 106 106 105 105 103 98 95 96 98 99 100 101 102 101 100 99 98 97 97 96 97 99 100 100 101 101 102 103 103 104 104 105 105 105 105 104 104 105 106 106 107 108 109 109 109 109 109 110 111 111 112 112 112 112 113 113 114 114 114 115 115 115 115 115 116 115
114 114 113 112 112 112 111 111 112 114 115 114 109 105 104 104 105 107 108 108 108 108 108 108 105 101 100 101 102 103 103 103 104 103 102 101 101 100 100 100 100 101 102 102 103 104 104 105 105 106 107 107 108 108 108 108 108 108 109 110 111 112 112 113 113 113 113 113 114 114 114 114 114 114 114 115 116 116 116 116 116 116 116 117 117 116
115 115 115 115 115 115 114 115 117 119 119 114 108 106 106 108 109 110 110 109 109 110 110 109 106 103 103 103 103 104 106 106 106 106 104 104 103 103 103 103 103 103 104 104 104 105 106 106 107 108 109 110 111 111 112 112 111 112 113 113 114 115 115 115 115 115 115 115 115 115 115 115 115 115 115 115 116 116 116 116 116 117 117 117 117 117
118 118 117 118 118 117 117 119 121 122 119 113 109 108 109 110 111 112 111 110 110 111 111 110 108 106 105 106 107 108 109 109 109 109 107 107 106 106 106 106 107 107 108 108 107 108 108 109 110 112 113 114 114 115 115 115 115 115 116 117 117 117 117 117 116 116 116 116 116 116 116 115 115 115 115 115 115 115 115 116 116 116 117 117 116 116
122 121 121 121 121 121 121 122 123 123 120 115 111 110 109 110 112 114 114 113 113 114 114 113 111 109 109 110 111 112 112 112 112 112 112 111 111 110 111 111 111 112 112 112 112 112 112 113 113 115 116 117 117 118 118 118 118 118 119 119 120 119 119 119 118 118 118 117 117 116 116 115 114 114 114 114 114 114 114 115 115 114 115 114 114 114
124 124 124 125 125 126 126 125 126 127 124 119 115 111 110 112 115 118 119 118 116 117 117 116 114 112 113 115 115 115 116 116 116 116 116 116 116 115 115 115 115 115 115 116 116 116 116 116 116 117 117 118 119 120 120 120 120 120 120 121 121 121 121 120 119 118 118 117 117 116 116 115 114 113 113 113 112 112 112 112 112 111 112 111 111 111
123 124 126 127 127 128 129 130 131 131 128 122 117 115 116 118 120 124 125 123 120 119 119 119 118 118 118 119 119 119 119 119 119 119 119 119 118 118 118 118 117 117 117 117 117 117 118 118 119 120 120 121 121 121 121 121 120 120 121 121 121 120 119 118 117 117 116 115 115 114 114 114 113 112 111 111 110 110 110 110 109 109 109 109 109 108
120 122 124 126 126 128 129 131 132 132 128 123 119 118 120 122 125 128 129 126 122 120 122 123 123 123 123 123 123 123 123 122 122 122 121 120 120 119 119 119 119 118 118 118 118 118 118 119 119 120 120 120 120 120 120 119 119 119 119 119 119 118 117 116 114 114 113 112 112 112 112 112 111 110 110 109 108 108 107 107 107 107 106 106 106 105
119 120 122 123 123 124 125 127 130 130 127 123 120 119 121 123 127 130 130 127 123 122 125 127 127 127 128 127 126 126 126 125 125 124 124 122 121 121 120 120 120 120 120 120 119 119 119 119 119 119 119 119 119 118 117 115 114 114 114 114 113 112 111 110 110 109 108 107 107 107 108 108 107 107 106 106 105 104 104 104 103 103 103 103 103 102
122 122 123 123 123 123 123 124 126 127 125 121 118 117 120 125 129 130 128 125 123 122 125 127 127 127 128 127 127 126 126 125 125 124 124 123 123 122 122 121 121 121 121 121 121 120 120 119 119 119 119 119 118 116 114 112 110 109 108 107 107 106 105 104 103 103 102 102 102 102 103 103 103 103 103 103 102 102 101 102 102 102 102 102 102 103
126 126 127 127 126 126 126 126 128 127 123 119 116 117 121 125 128 128 125 123 123 123 124 125 125 126 126 125 125 125 125 124 124 123 123 123 122 122 122 122 122 121 122 122 122 121 120 119 118 117 116 115 114 112 110 107 104 102 101 100 100 99 99 98 98 98 98 98 99 99 100 100 101 101 101 102 102 102 102 102 103 103 104 104 105 106
125 126 128 128 128 128 129 130 131 128 123 120 120 122 125 127 128 128 126 125 126 126 126 125 125 125 125 125 124 125 125 125 124 124 124 123 123 123 123 123 122 121 121 120 119 118 116 114 112 111 109 108 107 105 103 101 98 97 96 95 95 95 94 94 95 96 96 97 97 98 99 100 101 102 102 103 103 104 104 105 106 106 107 109 109 110
125 125 125 124 125 126 128 129 128 125 122 121 124 126 129 129 129 129 128 127 126 126 125 125 125 126 126 125 125 125 125 125 124 124 123 123 123 122 122 121 121 119 118 116 115 113 111 109 107 105 103 102 101 100 99 97 96 95 95 96 96 96 95 95 96 97 97 98 99 100 101 102 103 104 105 106 107 108 108 109 110 111 112 113 114 115
121 121 121 121 122 123 124 124 124 123 121 121 121 123 126 127 127 127 127 125 124 124 123 123 123 124 124 125 125 124 124 123 122 122 121 120 119 119 118 117 116 115 113 111 110 108 106 104 101 100 99 99 99 99 99 98 98 97 98 99 100 100 99 100 100 100 101 102 103 104 105 105 107 108 109 110 111 112 113 114 114 115 116 117 118 119
116 116 117 119 120 121 121 121 120 119 118 117 118 119 120 121 122 122 122 121 121 121 121 120 120 121 121 121 121 120 119 119 118 117 117 116 115 114 112 111 110 109 108 106 105 103 101 99 98 97 97 98 100 102 102 102 102 102 102 103 104 104 104 104 104 105 105 106 107 108 108 109 109 111 112 114 115 115 116 117 118 118 119 120 120 121
116 115 116 118 119 120 119 118 117 116 116 116 115 116 116 117 117 117 116 116 117 117 117 117 117 117 117 117 117 116 115 114 114 113 112 111 110 109 107 106 105 105 104 103 103 102 101 100 100 100 101 102 104 106 106 107 107 108 108 108 108 108 109 109 109 109 109 110 111 112 113 113 113 114 115 116 117 117 118 119 119 120 120 121 121 121
117 117 118 118 119 119 118 117 116 116 116 115 114 114 115 115 115 115 114 114 115 115 115 115 115 114 114 114 114 113 112 112 111 110 109 108 107 107 106 105 104 104 104 104 104 104 104 105 105 105 106 107 108 110 111 111 112 113 114 114 113 113 113 113 113 114 114 115 116 117 117 118 118 118 119 119 119 119 120 120 120 120 120 120 120 120
119 119 119 119 119 119 118 117 117 116 117 117 116 116 116 117 117 116 116 116 115 115 116 116 115 115 115 114 114 113 112 111 110 109 109 108 108 108 107 107 107 107 108 108 109 109 110 110 110 110 110 111 113 114 115 115 116 118 119 119 118 117 117 117 118 119 119 120 121 122 122 123 122 122 121 121 120 120 120 119 119 118 118 118 118 117
119 119 118 118 118 118 117 116 117 117 118 118 118 118 118 118 118 117 117 117 117 117 117 117 117 116 116 115 114 113 112 112 111 111 111 111 112 112 112 112 112 112 112 113 113 113 114 114 114 114 113 114 115 116 117 118 120 122 124 125 124 122 122 122 123 123 125 126 126 126 125 125 124 123 121 120 119 119 118 118 117 116 115 115 115 115
121 120 119 119 119 118 117 117 118 118 118 119 118 118 118 119 119 119 119 119 119 118 118 118 118 117 117 117 116 116 115 115 114 114 115 115 116 116 116 116 116 116 116 116 116 116 116 116 117 117 117 118 119 120 122 123 125 127 129 130 129 128 127 127 127 127 127 128 128 127 125 124 122 121 120 119 118 117 116 116 115 114 113 113 113 113
Wind_Direction
235 235 237 240 241 242 243 244 245 246 247 249 250 251 253 254 255 256 258 260 262 263 263 265 269 270 271 275 279 281 280 279 279 280 279 281 285 288 292 296 297 297 296 298 300 303 306 310 312 313 313 313 313 313 312 311 313 316 316 316 316 316 316 316 316 316 314 312 310 308 306 306 305 305 304 304 304 304 305 307 308 309 310 310 310 309
236 236 237 239 240 242 244 246 247 248 249 250 251 252 253 254 255 257 258 259 261 263 264 265 267 268 271 275 277 278 278 277 277 276 276 280 282 285 289 293 294 294 296 297 298 300 303 307 310 311 311 310 310 310 310 310 311 313 313 314 315 317 316 316 315 315 313 312 311 309 307 305 304 303 303 302 302 303 304 306 308 309 310 309 309 308
237 238 239 240 241 242 243 245 246 247 249 250 251 252 253 254 256 257 259 260 261 262 264 264 265 268 272 274 274 276 277 276 274 273 276 279 281 283 287 289 292 294 296 295 295 297 300 303 307 308 308 308 307 307 307 308 309 311 311 311 313 316 316 316 315 314 313 313 312 311 309 307 306 304 303 303 303 304 305 306 307 308 309 307 306 306
236 238 239 240 241 242 243 243 244 246 247 249 250 252 253 255 256 258 260 260 260 260 261 262 264 268 271 272 272 275 276 273 270 272 276 279 280 283 286 288 291 294 294 293 293 294 297 300 304 305 305 305 305 304 304 305 306 308 308 309 311 313 315 315 314 314 313 312 312 311 311 310 309 308 307 306 305 305 306 307 308 308 307 305 304 304
235 237 239 241 242 243 243 244 244 245 246 248 250 251 253 254 256 257 258 257 257 258 259 260 263 267 269 270 271 273 274 270 268 272 276 278 280 282 285 288 291 292 292 292 292 291 293 296 300 302 302 302 302 301 301 302 304 305 306 307 308 310 312 312 313 313 313 312 312 312 312 312 312 311 311 309 308 308 308 308 308 307 306 304 303 302
237 238 240 241 243 244 244 245 245 245 246 248 249 251 252 253 254 255 255 255 256 256 257 259 262 265 267 268 270 271 271 268 267 272 277 278 280 281 283 287 289 290 291 292 290 288 289 293 297 299 300 300 299 298 297 298 301 303 303 304 306 307 309 310 311 311 311 311 312 312 313 313 313 313 313 312 310 310 309 308 307 306 305 304 303 302
238 240 241 242 243 244 244 245 246 246 247 248 249 250 251 252 252 253 255 256 256 256 257 258 261 264 267 268 269 270 270 267 266 271 276 278 279 280 282 285 288 290 291 290 287 285 286 291 296 299 299 298 297 296 295 296 297 299 299 301 302 304 306 307 308 309 309 310 312 313 313 313 314 314 314 313 312 312 311 309 308 306 305 304 304 303
239 240 241 242 243 243 244 245 246 247 248 248 249 249 250 251 252 253 254 255 255 255 256 258 260 264 267 269 269 270 270 268 267 270 274 276 278 279 281 285 287 288 289 287 285 284 285 290 295 298 297 297 296 295 294 294 294 295 296 297 299 301 303 304 306 307 307 308 310 312 313 313 314 314 313 313 312 312 311 310 308 307 306 305 304 303
238 239 240 241 242 243 244 245 246 247 247 248 249 249 250 251 251 252 253 253 253 254 256 258 260 262 266 268 268 269 270 269 269 270 273 275 276 278 281 284 285 286 286 285 284 284 285 290 294 295 295 295 295 294 293 292 292 293 294 295 297 298 300 301 303 304 304 306 309 311 313 313 313 313 312 311 311 311 311 310 309 308 306 305 304 303
237 238 239 240 241 243 244 245 246 247 247 248 249 250 251 251 252 252 252 252 253 255 257 259 260 261 264 267 268 268 268 269 270 271 273 274 275 277 280 282 283 284 285 284 283 283 285 289 292 293 294 294 293 292 292 291 291 291 292 293 294 296 298 299 300 301 302 305 307 310 312 312 312 311 310 309 309 310 309 309 308 307 305 304 303 302
237 238 239 240 241 242 244 245 245 246 247 248 249 250 251 251 252 252 253 253 254 256 258 259 260 259 261 266 268 268 268 270 271 272 272 273 274 276 278 280 282 283 284 283 282 282 284 288 291 292 293 292 291 290 289 289 288 288 289 290 292 293 295 296 298 299 301 304 306 309 310 310 310 309 308 308 308 308 307 307 306 305 304 303 302 301
237 238 239 240 241 242 242 243 244 245 247 248 249 250 251 251 252 253 253 254 255 256 257 258 260 260 261 264 267 269 270 271 272 272 271 271 272 274 277 279 281 282 282 281 280 281 285 288 289 290 290 290 289 288 287 286 286 286 287 288 290 291 292 294 296 298 300 302 305 307 308 307 308 307 307 306 306 306 306 305 305 304 303 303 302 301
237 238 238 239 240 241 242 243 244 245 246 248 249 250 251 252 252 253 254 255 255 255 256 258 260 261 261 262 266 269 271 271 271 270 269 269 271 274 276 278 278 279 279 279 280 282 285 286 288 288 288 288 287 286 286 285 285 285 285 286 288 290 291 293 294 296 299 302 304 305 304 305 306 305 305 304 304 304 304 304 303 303 303 303 302 302
236 237 238 239 240 241 243 244 245 246 246 247 248 249 251 252 253 254 255 255 256 256 257 258 260 261 260 260 263 267 270 270 270 269 270 271 272 274 275 276 276 277 278 279 280 282 283 285 286 287 287 287 287 286 286 285 285 285 285 286 287 289 290 292 294 296 298 300 301 301 301 302 303 303 302 302 301 301 301 301 301 301 301 301 301 301
236 237 238 239 240 241 242 243 244 245 246 247 249 250 252 253 254 254 255 255 255 256 256 257 259 260 260 259 261 264 267 269 270 270 271 272 273 274 274 275 276 277 277 278 279 281 282 283 284 285 285 285 285 285 285 285 285 285 285 286 287 288 290 292 294 296 297 297 298 298 298 299 300 300 300 299 299 299 299 299 299 299 300 300 300 300
237 239 240 240 241 242 243 244 245 246 247 249 250 251 252 253 253 253 254 254 255 255 256 257 259 260 260 260 261 262 264 267 269 271 272 273 273 274 274 275 275 276 277 278 279 280 281 282 282 283 283 283 284 284 285 285 285 285 285 286 287 289 291 293 294 295 295 295 295 295 295 296 297 298 297 297 297 297 298 298 297 298 298 298 299 299
236 237 239 240 241 241 242 244 245 246 247 248 249 250 251 252 252 253 253 254 255 256 257 258 259 259 259 260 260 260 261 264 267 270 272 273 274 274 274 274 275 275 277 278 279 280 281 281 281 282 282 283 283 284 284 284 284 284 284 285 287 289 291 292 292 292 292 292 292 292 292 294 295 295 295 295 295 296 296 296 296 297 297 298 298 299
236 237 238 239 240 241 241 242 244 245 246 247 248 249 250 251 252 254 254 255 256 256 257 257 257 257 258 259 260 260 260 262 264 267 270 273 274 275 275 275 276 276 277 278 279 279 280 280 280 281 281 282 283 284 284 283 283 283 284 285 286 288 288 288 288 288 288 288 288 289 290 291 292 292 293 293 294 294 295 295 295 296 296 296 297 298
236 237 238 240 241 242 243 244 245 246 248 249 249 250 251 252 254 254 255 255 255 256 256 256 256 257 258 259 260 260 261 262 263 265 267 270 272 274 275 276 277 278 278 279 279 279 279 279 279 280 281 283 284 284 283 283 283 283 284 285 285 285 285 285 284 284 285 286 286 288 288 289 290 291 291 292 292 293 293 293 294 294 294 295 296 297
235 236 237 238 240 241 243 244 246 247 248 249 249 250 250 251 252 253 253 254 254 255 255 256 256 258 259 260 260 261 262 261 262 263 265 267 269 272 274 275 276 277 277 278 279 279 279 280 280 282 283 284 284 284 283 283 283 283 284 284 284 283 283 282 283 283 284 285 286 287 288 289 290 290 291 292 292 292 292 292 293 293 294 295 296 296
234 235 236 237 239 240 242 243 244 245 245 246 246 247 248 249 251 252 253 254 255 256 257 257 258 259 260 260 261 262 262 262 262 262 264 265 267 269 271 273 274 275 276 277 278 279 279 280 282 283 284 284 284 284 284 283 283 284 284 283 282 281 281 282 282 283 284 285 286 288 289 290 291 291 292 292 292 292 292 292 292 293 294 295 295 295
234 235 236 237 238 240 241 242 243 243 244 245 246 247 249 250 252 253 255 256 257 258 258 258 258 259 260 260 261 261 262 262 263 263 263 264 266 267 268 270 271 273 275 276 277 278 279 280 282 283 284 285 285 284 283 283 282 282 282 282 281 281 281 282 282 283 285 286 288 289 290 291 291 291 291 291 291 291 291 291 292 293 294 294 294 294
234 234 235 236 237 238 240 241 242 244 245 247 248 250 251 253 254 255 256 256 257 257 258 259 258 258 259 259 260 260 261 262 262 263 264 264 265 265 266 268 269 271 273 275 276 278 279 281 283 284 284 284 283 282 281 281 280 280 280 280 281 282 282 283 284 285 287 288 289 289 289 289 289 290 290 290 290 290 290 291 291 292 293 293 293 294
237 237 237 238 239 240 241 242 244 246 248 250 252 253 254 255 255 256 256 256 256 257 258 259 259 258 257 257 258 259 260 261 262 263 264 264 265 265 266 267 268 269 271 273 275 277 279 281 283 283 282 282 281 280 280 280 280 280 280 281 281 282 283 284 285 287 287 288 288 288 288 288 288 289 290 290 290 291 291 291 292 292 292 293 293 293
239 240 240 241 241 242 243 245 247 250 252 253 254 254 254 255 255 255 255 255 255 256 257 258 259 258 256 255 256 258 259 261 262 263 263 263 264 265 266 267 268 269 270 271 273 275 278 280 280 280 279 279 279 279 280 280 280 281 281 281 282 282 283 284 285 285 286 286 286 286 287 288 288 289 290 291 291 292 292 292 292 292 293 293 293 293
240 240 241 242 243 244 246 247 248 249 250 250 250 250 251 251 252 253 253 254 255 256 257 259 260 259 258 258 259 259 260 261 261 262 261 261 262 264 265 267 267 268 270 272 273 275 276 276 276 276 276 277 277 278 279 279 280 280 281 282 282 283 283 284 284 285 285 286 287 287 287 288 289 290 290 291 291 292 292 292 292 292 292 292 293 293
241 241 242 243 245 246 247 247 247 247 248 249 249 251 252 253 254 255 256 257 259 260 260 261 262 261 260 261 260 259 259 258 258 259 260 261 262 263 265 266 267 268 271 273 273 273 273 272 272 273 273 274 275 276 277 278 279 281 281 282 283 284 284 285 285 286 287 287 287 288 288 288 289 289 290 290 290 291 291 291 291 291 290 290 290 290
242 242 243 244 245 245 246 246 247 247 249 250 251 252 253 254 255 256 258 259 260 260 260 260 260 259 259 259 259 258 258 258 257 258 259 260 262 263 264 265 267 269 270 271 271 271 271 270 270 271 271 271 272 273 275 276 278 279 280 281 282 283 283 284 284 285 285 286 286 286 286 287 287 287 287 288 288 288 288 288 288 288 288 288 288 288
242 243 243 244 244 245 245 246 247 248 249 249 250 251 252 253 254 255 257 258 258 258 259 258 258 259 260 259 259 259 259 258 257 257 257 258 259 261 262 264 266 268 269 269 270 270 270 270 270 270 270 270 271 272 274 275 276 277 278 279 280 281 282 283 283 283 284 284 284 285 285 285 285 286 286 286 286 286 286 286 286 287 287 287 287 288
242 243 243 244 244 245 245 246 247 248 249 249 250 251 252 253 254 255 256 257 258 259 259 258 258 259 260 259 258 258 258 258 258 257 257 258 259 260 262 264 266 267 268 268 269 269 269 269 269 270 270 271 271 272 274 275 276 277 278 279 279 280 280 281 282 282 283 283 283 284 284 285 285 286 286 286 286 286 287 287 287 287 287 287 287 288
242 243 243 244 244 245 245 246 247 248 248 249 249 250 251 253 254 255 256 257 257 258 259 258 258 258 259 259 258 257 258 258 259 259 260 261 261 262 262 264 265 266 267 268 268 269 269 270 270 271 271 272 273 273 274 274 275 276 277 277 278 278 279 279 280 280 281 281 282 283 284 284 285 285 285 286 286 286 286 287 287 287 287 287 288 288
242 243 243 244 245 245 246 246 247 247 248 248 248 250 251 253 254 255 255 256 257 257 258 258 259 259 258 258 259 259 259 260 261 262 263 263 263 263 264 264 265 266 267 268 269 269 270 271 272 273 273 273 274 274 274 274 274 275 275 276 276 277 278 279 279 280 280 281 281 282 282 283 283 284 284 284 285 285 285 286 286 287 287 287 288 288
242 243 244 245 246 246 246 247 247 248 248 248 249 251 252 253 254 255 255 256 257 258 258 259 260 259 259 259 260 261 262 262 263 263 264 264 264 264 265 265 266 266 267 268 269 270 271 271 272 273 273 274 274 274 275 275 275 276 276 277 277 278 279 279 280 280 281 281 281 281 282 282 282 283 283 283 284 284 285 285 285 286 286 287 287 288
242 243 244 244 245 246 246 247 248 248 249 249 250 251 252 253 254 255 256 257 257 258 259 260 260 259 260 260 261 261 262 263 263 264 264 265 265 265 266 266 266 267 267 268 268 269 270 271 272 272 273 273 274 275 275 276 277 277 278 278 279 279 280 280 280 281 281 281 281 281 281 281 282 282 282 282 283 283 283 284 284 284 285 285 286 286
242 243 244 245 246 246 247 247 248 249 250 250 250 251 252 254 255 256 256 257 257 258 258 259 259 259 259 260 260 261 262 263 263 264 265 265 266 266 267 267 267 268 268 269 269 269 270 271 272 272 273 274 275 275 276 277 278 278 279 279 279 280 280 280 280 281 281 281 281 281 281 281 281 281 281 281 281 281 282 282 283 283 284 284 284 285
244 245 245 246 247 247 247 248 249 250 251 251 250 251 252 254 255 255 256 256 256 257 258 258 259 259 260 260 261 261 262 262 263 264 265 266 267 267 268 269 269 270 270 271 271 271 272 272 273 273 274 275 275 276 277 277 278 278 279 279 279 279 279 280 280 280 280 280 280 280 280 279 279 279 279 280 280 280 281 281 282 282 283 283 284 284
245 246 247 247 248 248 249 249 250 251 251 251 251 252 253 254 255 255 255 255 256 257 259 259 260 261 261 261 262 262 263 263 264 265 266 267 268 269 269 270 271 271 272 272 272 273 273 274 274 274 275 275 276 276 277 277 277 278 278 278 279 279 279 279 279 280 280 280 279 279 279 279 279 279 279 279 279 279 280 280 281 281 282 282 282 283
246 247 248 248 249 250 250 251 251 252 252 252 253 253 253 254 254 255 256 256 257 258 260 260 261 261 261 261 262 263 263 264 265 266 267 268 269 270 270 271 272 272 273 273 274 274 274 275 275 275 276 276 276 277 277 277 278 278 278 278 279 279 279 279 279 279 279 279 279 279 279 279 279 279 279 279 279 279 280 280 280 281 281 281 282 282
248 248 249 250 250 251 252 252 253 253 254 254 254 254 255 255 256 256 257 257 258 259 260 260 260 260 261 261 262 263 264 265 266 266 267 268 269 270 271 272 272 273 274 274 275 276 276 276 277 277 277 278 278 278 278 278 279 279 279 279 279 279 279 279 279 279 279 279 279 279 279 279 279 279 279 279 279 279 279 280 280 280 280 281 281 281
249 250 250 251 252 252 253 254 255 255 255 255 255 255 256 257 257 257 258 258 259 259 260 260 261 261 262 263 263 264 265 266 266 267 268 269 269 270 271 272 273 273 274 275 275 276 276 277 277 277 278 278 278 278 278 278 278 278 278 278 278 278 278 278 278 278 278 278 278 278 279 279 279 279 279 279 279 279 279 279 280 280 280 281 281 281
249 250 251 252 253 253 254 255 256 257 257 257 258 258 258 258 258 259 260 261 261 261 261 262 263 263 264 265 266 266 267 268 268 269 270 270 271 271 272 272 273 273 274 274 275 275 276 276 277 277 277 277 277 277 277 277 277 277 277 276 276 276 276 276 276 277 277 277 277 277 277 278 278 278 278 279 279 279 280 280 280 280 280 280 280 280
249 250 251 252 253 253 254 255 256 257 258 259 259 259 260 260 260 261 262 262 262 262 262 263 264 265 266 267 268 268 269 270 270 270 271 271 271 272 272 273 273 274 274 275 275 275 276 276 276 277 277 277 277 276 276 276 276 276 276 276 276 276 276 276 276 276 276 276 276 276 277 277 277 277 278 278 279 279 279 279 279 279 279 278 278 278
249 250 251 252 253 254 255 255 256 257 258 258 258 258 259 259 260 261 261 262 262 263 264 265 266 267 268 268 269 269 269 270 270 270 271 271 272 272 273 273 274 274 274 275 275 275 276 276 276 276 276 276 276 275 275 275 274 274 275 275 275 275 275 276 276 276 276 276 276 276 276 276 277 277 277 277 277 277 277 277 277 277 277 277 277 277
249 250 251 252 253 254 255 256 256 257 257 257 257 258 258 259 260 261 261 262 263 264 264 265 266 266 267 267 267 268 268 269 269 270 271 271 272 272 273 273 274 274 274 274 275 275 275 274 274 274 274 274 273 273 273 273 273 273 273 274 274 274 274 275 275 275 275 275 275 275 275 275 275 275 276 276 276 276 276 276 276 276 276 276 276 276
249 250 251 251 252 252 253 254 255 256 257 257 258 259 260 260 260 261 261 262 262 263 263 264 264 265 266 266 267 267 268 269 270 270 271 271 271 272 272 272 273 273 274 274 274 274 274 273 273 273 273 273 273 273 273 273 273 273 273 274 274 274 274 274 274 274 274 274 274 274 274 274 274 274 274 275 275 275 276 276 276 276 276 276 277 277
248 249 250 251 252 252 252 253 254 255 256 257 258 258 259 260 261 262 262 263 263 263 263 263 264 264 265 266 267 268 268 269 269 270 270 270 271 271 271 271 272 272 272 272 272 272 272 272 272 273 273 274 274 275 275 276 276 276 276 275 275 275 275 275 275 274 274 274 274 274 274 274 274 274 275 275 275 276 276 277 277 277 278 278 278 278
247 248 249 251 252 253 253 254 255 255 255 256 256 257 258 259 260 261 262 262 262 263 263 263 263 264 264 265 266 266 267 268 268 269 269 269 270 270 270 270 271 271 271 271 271 271 272 272 272 273 274 274 275 276 277 278 278 278 278 278 278 278 278 278 278 277 277 278 278 278 278 278 278 278 278 278 278 278 279 279 279 280 280 281 281 281
249 249 250 251 252 253 254 255 256 257 257 257 257 257 258 258 258 259 259 260 261 261 262 262 263 263 263 264 264 265 266 267 267 267 268 268 268 269 269 270 270 270 271 271 271 271 272 272 273 273 274 275 275 277 278 279 280 280 280 280 280 280 280 281 281 281 282 282 282 282 283 283 283 282 282 282 282 282 282 282 282 282 282 282 283 283
251 251 251 252 253 254 256 257 257 258 258 258 258 258 258 258 258 258 259 259 260 261 262 263 264 264 264 265 265 266 266 266 267 267 268 268 269 269 269 270 270 270 271 271 271 272 272 272 273 273 274 275 276 277 279 281 282 283 283 283 283 283 283 283 284 285 285 285 286 286 286 285 285 285 285 284 284 284 284 283 283 283 283 283 283 283
252 253 253 254 254 255 256 256 257 257 257 257 257 258 258 259 259 260 260 261 261 262 262 263 264 265 265 266 266 266 267 267 268 268 268 269 269 269 269 270 270 271 271 271 272 273 274 274 275 275 276 277 278 280 282 283 284 285 286 286 286 285 285 286 286 286 287 287 287 287 286 286 286 285 285 284 284 284 283 283 283 282 282 282 282 282
257 257 257 257 257 257 257 256 256 256 256 257 257 258 259 260 260 261 261 262 262 262 262 263 263 264 264 265 265 266 266 266 267 267 267 268 268 269 269 270 271 272 273 274 275 276 277 278 279 280 281 281 282 283 284 285 285 286 286 286 286 286 286 286 286 286 286 286 286 286 285 285 285 284 284 284 284 283 283 283 283 283 282 282 282 282
Height
10755 10759 10763 10765 10765 10766 10770 10776 10782 10784 10786 10789 10790 10792 10794 10796 10798 10800 10803 10804 10806 10808 10809 10811 10811 10812 10813 10814 10814 10815 10813 10812 10814 10816 10815 10814 10813 10812 10812 10813 10814 10814 10814 10814 10815 10815 10815 10815 10814 10814 10813 10812 10812 10812 10812 10811 10811 10811 10810 10809 10807 10806 10804 10802 10801 10799 10798 10797 10795 10794 10792 10791 10789 10787 10786 10784 10782 10780 10778 10777 10776 10774 10772 10770 10768 10766
10751 10755 10756 10755 10757 10762 10768 10774 10778 10779 10780 10782 10785 10787 10788 10790 10793 10796 10798 10800 10802 10803 10805 10807 10808 10806 10808 10811 10811 10811 10809 10808 10811 10812 10811 10811 10810 10809 10809 10810 10811 10811 10811 10812 10812 10812 10812 10812 10812 10811 10810 10809 10808 10808 10807 10807 10806 10806 10806 10806 10805 10803 10802 10800 10798 10797 10795 10794 10792 10791 10790 10788 10786 10785 10783 10782 10780 10778 10777 10775 10774 10772 10770 10768 10765 10763
10745 10747 10746 10748 10754 10759 10763 10767 10770 10772 10774 10776 10779 10781 10783 10785 10788 10791 10794 10796 10797 10799 10800 10803 10804 10801 10803 10807 10808 10807 10805 10804 10806 10807 10806 10808 10807 10806 10807 10807 10808 10808 10809 10809 10808 10809 10809 10809 10809 10808 10806 10805 10805 10804 10803 10803 10803 10802 10802 10801 10801 10800 10798 10797 10795 10794 10792 10791 10789 10788 10787 10785 10784 10782 10780 10779 10777 10775 10774 10773 10771 10769 10768 10765 10763 10760
10737 10737 10739 10745 10750 10752 10757 10761 10765 10767 10769 10771 10774 10776 10778 10780 10783 10786 10789 10791 10793 10795 10796 10798 10799 10796 10797 10802 10803 10804 10802 10799 10801 10801 10801 10804 10803 10803 10803 10804 10805 10805 10805 10805 10805 10806 10806 10806 10806 10805 10803 10802 10801 10800 10799 10799 10799 10798 10798 10797 10797 10796 10795 10793 10792 10790 10789 10787 10786 10784 10783 10782 10780 10779 10777 10775 10773 10772 10771 10770 10768 10766 10764 10762 10759 10757
10728 10730 10736 10742 10745 10747 10752 10756 10759 10762 10763 10766 10768 10771 10773 10775 10778 10781 10784 10786 10788 10791 10792 10793 10795 10792 10792 10796 10797 10799 10798 10795 10796 10795 10796 10799 10799 10800 10800 10800 10801 10801 10801 10802 10802 10803 10802 10802 10802 10801 10800 10798 10798 10797 10796 10795 10794 10794 10794 10793 10792 10792 10791 10789 10788 10787 10785 10783 10782 10780 10779 10778 10776 10775 10774 10772 10770 10768 10767 10765 10764 10762 10760 10758 10756 10753
10723 10727 10734 10737 10739 10742 10746 10749 10753 10756 10758 10760 10762 10765 10768 10770 10773 10775 10778 10781 10784 10787 10788 10788 10791 10788 10786 10790 10791 10793 10794 10792 10791 10789 10791 10794 10795 10796 10796 10796 10797 10796 10796 10797 10798 10799 10798 10798 10799 10798 10797 10795 10794 10794 10793 10791 10791 10790 10789 10788 10788 10787 10786 10785 10784 10782 10781 10779 10778 10776 10775 10773 10772 10770 10769 10768 10765 10764 10762 10761 10759 10758 10756 10754 10752 10750
10719 10723 10728 10731 10733 10736 10740 10743 10746 10749 10751 10753 10756 10758 10761 10765 10768 10770 10772 10776 10780 10783 10783 10784 10788 10785 10781 10783 10785 10787 10787 10787 10787 10785 10786 10789 10790 10790 10791 10792 10792 10791 10791 10791 10792 10793 10793 10793 10794 10793 10792 10791 10790 10790 10790 10789 10788 10787 10785 10784 10783 10782 10781 10780 10779 10778 10776 10775 10774 10772 10771 10769 10767 10765 10764 10763 10760 10759 10758 10756 10755 10753 10751 10750 10748 10746
10714 10717 10720 10723 10726 10729 10733 10736 10738 10741 10744 10747 10750 10752 10756 10759 10762 10765 10767 10770 10774 10777 10778 10780 10783 10782 10778 10776 10779 10781 10780 10780 10781 10782 10783 10784 10784 10783 10784 10787 10788 10786 10786 10786 10786 10787 10788 10788 10788 10788 10786 10785 10785 10785 10785 10785 10784 10783 10781 10780 10779 10778 10777 10775 10774 10773 10772 10771 10769 10768 10766 10765 10763 10761 10759 10757 10755 10754 10752 10751 10749 10748 10746 10744 10743 10740
10705 10708 10711 10715 10718 10722 10725 10728 10731 10734 10738 10742 10745 10747 10751 10753 10756 10759 10761 10764 10768 10771 10774 10775 10776 10780 10775 10768 10772 10776 10774 10773 10775 10777 10779 10780 10779 10778 10778 10780 10782 10781 10781 10781 10781 10781 10782 10782 10782 10782 10781 10780 10780 10779 10779 10779 10778 10777 10776 10775 10774 10773 10772 10770 10770 10769 10767 10766 10764 10763 10762 10760 10759 10756 10754 10752 10750 10749 10747 10745 10744 10742 10740 10739 10737 10735
10698 10702 10705 10709 10713 10716 10719 10723 10726 10729 10733 10736 10738 10742 10745 10747 10749 10751 10754 10758 10761 10766 10769 10767 10769 10776 10773 10763 10764 10770 10767 10766 10769 10772 10774 10774 10774 10773 10772 10773 10775 10776 10777 10776 10776 10776 10776 10776 10776 10776 10776 10775 10774 10774 10774 10773 10773 10771 10770 10769 10768 10768 10766 10765 10764 10763 10762 10761 10759 10758 10757 10755 10754 10752 10749 10747 10745 10744 10742 10740 10738 10737 10735 10733 10732 10730
10693 10697 10701 10704 10707 10710 10713 10717 10721 10723 10726 10729 10731 10734 10736 10739 10741 10744 10748 10751 10756 10763 10763 10760 10761 10770 10772 10761 10755 10761 10762 10761 10764 10766 10768 10769 10768 10767 10766 10767 10769 10770 10772 10772 10771 10770 10769 10769 10770 10770 10770 10770 10769 10769 10769 10768 10767 10766 10765 10763 10762 10762 10761 10759 10758 10757 10757 10756 10754 10753 10751 10749 10748 10746 10744 10741 10740 10738 10736 10734 10733 10731 10729 10727 10725 10723
10688 10691 10696 10699 10701 10703 10706 10709 10712 10715 10718 10721 10723 10725 10727 10731 10734 10738 10742 10745 10751 10757 10756 10753 10754 10763 10771 10759 10747 10752 10755 10755 10757 10759 10761 10762 10761 10761 10761 10762 10763 10764 10765 10766 10765 10765 10764 10763 10763 10763 10763 10763 10763 10763 10763 10763 10762 10761 10759 10758 10757 10756 10755 10754 10752 10752 10751 10751 10749 10748 10745 10743 10742 10740 10738 10735 10733 10732 10730 10728 10726 10724 10722 10720 10718 10716
10681 10684 10688 10691 10693 10696 10698 10701 10704 10707 10711 10713 10714 10716 10719 10723 10727 10732 10736 10739 10745 10749 10748 10747 10748 10758 10766 10755 10745 10747 10747 10747 10749 10749 10752 10755 10755 10756 10757 10757 10757 10757 10759 10759 10759 10759 10758 10757 10756 10756 10756 10756 10756 10757 10756 10756 10756 10755 10754 10752 10751 10751 10750 10749 10748 10747 10746 10744 10743 10741 10739 10737 10735 10734 10731 10729 10727 10725 10723 10721 10718 10716 10714 10712 10710 10708
10671 10674 10679 10683 10686 10688 10690 10693 10696 10698 10700 10702 10704 10707 10711 10716 10721 10727 10730 10733 10737 10740 10741 10742 10743 10752 10757 10749 10745 10744 10738 10737 10739 10739 10742 10747 10749 10751 10750 10750 10750 10751 10753 10753 10753 10753 10752 10751 10750 10749 10749 10749 10749 10749 10749 10749 10748 10748 10747 10746 10745 10745 10745 10744 10743 10742 10741 10739 10737 10734 10732 10730 10729 10727 10725 10723 10721 10718 10716 10713 10711 10708 10706 10704 10701 10699
10664 10668 10673 10676 10678 10679 10681 10682 10684 10686 10689 10693 10697 10702 10707 10711 10716 10721 10723 10725 10728 10731 10734 10736 10738 10745 10746 10742 10743 10742 10734 10729 10728 10730 10734 10737 10740 10743 10743 10743 10743 10744 10746 10746 10747 10746 10745 10744 10743 10743 10743 10742 10742 10742 10741 10741 10741 10741 10740 10740 10739 10739 10740 10739 10737 10737 10735 10733 10731 10728 10725 10723 10722 10720 10718 10716 10714 10712 10709 10706 10703 10700 10698 10695 10693 10690
10659 10663 10666 10667 10669 10671 10671 10673 10676 10679 10684 10690 10694 10698 10702 10704 10707 10711 10713 10716 10719 10722 10727 10730 10734 10738 10736 10735 10738 10738 10733 10727 10721 10721 10725 10727 10731 10734 10735 10736 10736 10736 10737 10737 10738 10738 10737 10737 10736 10736 10736 10736 10736 10736 10736 10735 10735 10734 10733 10733 10732 10732 10733 10732 10731 10729 10727 10725 10724 10722 10720 10718 10716 10713 10710 10708 10706 10704 10702 10699 10695 10692 10689 10687 10684 10682
10650 10654 10654 10655 10659 10660 10662 10665 10668 10672 10678 10683 10687 10691 10693 10693 10696 10700 10704 10708 10711 10715 10722 10726 10729 10729 10727 10728 10730 10730 10729 10727 10722 10717 10715 10717 10720 10723 10726 10728 10728 10728 10728 10728 10728 10728 10728 10728 10729 10729 10729 10730 10730 10730 10730 10730 10729 10728 10728 10727 10727 10726 10726 10725 10724 10721 10719 10717 10715 10713 10712 10711 10709 10706 10703 10700 10698 10696 10693 10690 10687 10684 10681 10678 10676 10674
10641 10641 10643 10645 10647 10649 10651 10655 10659 10663 10669 10674 10679 10683 10683 10684 10688 10692 10697 10701 10704 10709 10715 10718 10720 10721 10719 10721 10722 10721 10723 10724 10721 10717 10712 10710 10710 10712 10714 10716 10718 10718 10718 10718 10719 10719 10720 10720 10721 10722 10723 10724 10724 10724 10724 10724 10723 10723 10722 10723 10722 10721 10720 10718 10716 10714 10711 10710 10708 10706 10705 10703 10701 10698 10695 10693 10690 10688 10685 10682 10679 10676 10673 10670 10668 10666
10632 10632 10635 10638 10639 10641 10644 10647 10653 10659 10664 10669 10673 10675 10674 10678 10683 10684 10687 10692 10695 10699 10705 10709 10713 10714 10715 10715 10713 10714 10716 10717 10716 10715 10712 10707 10704 10703 10704 10706 10707 10706 10705 10706 10708 10709 10710 10710 10712 10715 10717 10718 10718 10717 10717 10716 10716 10716 10716 10717 10716 10715 10712 10710 10708 10706 10703 10702 10700 10698 10697 10695 10693 10690 10688 10686 10683 10680 10677 10674 10671 10669 10665 10662 10660 10657
10622 10623 10626 10629 10630 10632 10635 10641 10650 10657 10658 10661 10663 10664 10665 10668 10672 10673 10676 10681 10686 10690 10696 10702 10707 10709 10709 10708 10706 10707 10707 10708 10709 10709 10708 10705 10701 10698 10697 10697 10696 10695 10695 10696 10697 10698 10698 10699 10703 10707 10709 10711 10710 10709 10709 10708 10709 10709 10709 10710 10709 10706 10703 10700 10698 10697 10694 10692 10691 10689 10687 10685 10684 10682 10680 10678 10675 10672 10668 10665 10663 10660 10657 10655 10652 10649
10612 10613 10617 10620 10620 10622 10629 10637 10644 10646 10644 10646 10649 10652 10655 10658 10661 10664 10667 10672 10677 10683 10689 10694 10701 10705 10703 10701 10700 10699 10698 10698 10700 10701 10701 10700 10697 10694 10692 10689 10688 10686 10686 10687 10687 10688 10689 10691 10695 10698 10700 10701 10700 10700 10700 10701 10700 10700 10701 10700 10698 10696 10693 10690 10688 10686 10685 10683 10681 10679 10677 10675 10674 10672 10670 10668 10666 10662 10658 10655 10652 10650 10649 10647 10643 10640
10602 10605 10607 10610 10613 10618 10624 10627 10629 10628 10629 10634 10638 10643 10649 10651 10654 10657 10662 10668 10671 10674 10679 10685 10695 10700 10696 10692 10693 10691 10689 10689 10690 10691 10692 10692 10690 10688 10686 10683 10681 10680 10679 10678 10678 10679 10681 10684 10688 10690 10691 10691 10691 10690 10691 10692 10691 10691 10690 10688 10687 10684 10682 10679 10678 10676 10675 10674 10671 10669 10666 10664 10662 10660 10659 10658 10655 10653 10649 10646 10643 10641 10640 10638 10634 10631
10589 10592 10595 10599 10605 10610 10611 10612 10616 10618 10622 10627 10632 10639 10644 10645 10649 10652 10655 10660 10660 10662 10669 10674 10686 10695 10690 10684 10683 10681 10681 10681 10679 10679 10680 10681 10681 10679 10678 10678 10676 10675 10673 10672 10671 10671 10673 10677 10681 10683 10682 10681 10680 10680 10680 10681 10682 10681 10680 10678 10676 10674 10671 10669 10668 10667 10666 10664 10662 10659 10656 10654 10651 10649 10648 10647 10645 10643 10640 10637 10635 10633 10632 10629 10625 10622
10581 10584 10590 10594 10598 10601 10602 10606 10610 10612 10617 10623 10630 10636 10637 10639 10643 10641 10643 10648 10647 10654 10662 10664 10675 10687 10682 10675 10675 10673 10671 10670 10669 10668 10668 10668 10668 10668 10669 10670 10669 10669 10668 10666 10666 10666 10668 10671 10673 10674 10672 10669 10669 10668 10668 10670 10670 10670 10670 10668 10667 10665 10662 10659 10658 10658 10656 10654 10652 10648 10645 10643 10639 10638 10637 10635 10634 10632 10629 10627 10625 10622 10620 10618 10615 10612
10574 10577 10583 10587 10590 10593 10597 10604 10610 10615 10619 10623 10625 10627 10626 10628 10628 10626 10631 10634 10636 10647 10653 10651 10664 10675 10670 10666 10668 10665 10662 10661 10659 10658 10657 10655 10656 10657 10658 10659 10660 10660 10660 10660 10663 10665 10666 10667 10666 10664 10661 10659 10659 10658 10658 10658 10658 10659 10658 10657 10657 10656 10653 10651 10649 10648 10646 10644 10642 10639 10635 10632 10629 10626 10625 10623 10621 10619 10617 10614 10612 10610 10607 10605 10602 10600
10563 10567 10574 10577 10581 10588 10596 10604 10611 10612 10608 10606 10608 10610 10610 10611 10610 10612 10616 10616 10625 10642 10643 10643 10658 10664 10658 10658 10661 10658 10656 10653 10649 10646 10644 10644 10646 10648 10650 10649 10649 10649 10651 10654 10659 10662 10662 10660 10659 10656 10653 10652 10651 10649 10647 10647 10647 10647 10647 10645 10645 10644 10642 10640 10638 10636 10634 10632 10631 10628 10624 10621 10618 10615 10613 10610 10608 10606 10604 10602 10599 10597 10595 10592 10590 10589
10553 10560 10567 10571 10577 10586 10593 10596 10597 10593 10588 10590 10597 10599 10599 10600 10601 10603 10604 10610 10628 10637 10634 10641 10651 10650 10650 10651 10648 10647 10646 10641 10637 10635 10633 10636 10639 10641 10640 10639 10638 10640 10644 10648 10652 10654 10654 10653 10651 10650 10647 10645 10643 10640 10638 10637 10637 10636 10635 10633 10632 10631 10630 10628 10625 10622 10620 10619 10617 10614 10611 10609 10606 10604 10602 10600 10598 10596 10594 10591 10589 10587 10584 10582 10580 10578
10545 10552 10560 10565 10569 10576 10581 10580 10580 10580 10580 10586 10591 10592 10592 10593 10594 10595 10599 10613 10624 10620 10623 10638 10635 10632 10644 10641 10631 10635 10635 10627 10625 10625 10625 10630 10632 10632 10630 10628 10630 10634 10638 10640 10640 10641 10643 10643 10643 10642 10639 10638 10635 10633 10632 10631 10630 10629 10627 10624 10622 10620 10620 10618 10615 10613 10610 10608 10605 10602 10600 10598 10596 10595 10593 10592 10590 10587 10585 10582 10580 10578 10575 10572 10570 10567
10536 10543 10551 10555 10557 10563 10568 10568 10569 10571 10572 10575 10579 10581 10583 10583 10584 10589 10596 10608 10609 10603 10615 10628 10618 10620 10636 10629 10619 10626 10622 10613 10613 10614 10615 10620 10623 10624 10623 10621 10623 10626 10628 10629 10630 10631 10632 10633 10633 10631 10630 10629 10628 10627 10625 10624 10623 10622 10620 10618 10615 10613 10611 10610 10607 10604 10602 10599 10595 10591 10590 10588 10586 10584 10583 10582 10580 10577 10574 10571 10569 10567 10565 10561 10558 10555
10525 10532 10539 10542 10546 10552 10555 10557 10560 10561 10562 10565 10569 10571 10573 10574 10578 10585 10592 10598 10595 10593 10605 10612 10605 10615 10627 10616 10611 10615 10606 10598 10600 10602 10604 10609 10613 10616 10617 10616 10615 10616 10617 10619 10620 10621 10621 10621 10621 10620 10619 10620 10620 10619 10618 10616 10615 10613 10612 10610 10607 10604 10603 10602 10600 10596 10592 10588 10584 10580 10578 10576 10574 10572 10570 10568 10565 10563 10560 10558 10556 10554 10552 10548 10545 10542
10515 10521 10526 10531 10535 10539 10544 10548 10550 10550 10551 10554 10556 10559 10565 10569 10574 10580 10584 10586 10583 10584 10592 10593 10592 10609 10617 10604 10598 10599 10592 10587 10587 10590 10596 10601 10604 10607 10608 10608 10608 10606 10606 10607 10607 10608 10609 10608 10609 10610 10609 10609 10609 10609 10609 10609 10607 10605 10603 10600 10597 10595 10593 10592 10591 10589 10585 10580 10576 10572 10569 10567 10565 10562 10559 10555 10552 10550 10547 10545 10543 10540 10537 10534 10532 10529
10504 10509 10514 10521 10522 10527 10535 10537 10536 10538 10537 10537 10543 10555 10563 10566 10569 10571 10571 10571 10571 10574 10577 10576 10582 10602 10605 10589 10581 10583 10582 10578 10576 10580 10588 10591 10592 10594 10595 10597 10599 10597 10596 10596 10595 10596 10596 10596 10597 10597 10597 10596 10596 10596 10597 10598 10597 10595 10593 10590 10587 10585 10583 10581 10580 10579 10576 10573 10568 10565 10562 10558 10557 10554 10550 10546 10543 10540 10537 10534 10532 10528 10524 10521 10518 10516
10498 10501 10507 10511 10511 10517 10523 10522 10522 10522 10517 10523 10544 10557 10558 10557 10559 10559 10557 10560 10563 10563 10562 10565 10577 10590 10586 10576 10574 10573 10571 10569 10567 10570 10575 10577 10579 10581 10582 10583 10585 10585 10586 10586 10585 10585 10585 10586 10585 10585 10584 10583 10582 10582 10582 10583 10584 10582 10579 10577 10575 10573 10571 10569 10567 10566 10564 10562 10558 10555 10551 10548 10546 10544 10540 10535 10532 10529 10527 10524 10520 10516 10513 10510 10507 10504
10488 10492 10496 10498 10499 10505 10508 10508 10508 10502 10502 10525 10548 10549 10544 10547 10549 10546 10547 10553 10554 10551 10551 10557 10568 10575 10571 10567 10564 10560 10558 10559 10557 10556 10560 10564 10567 10568 10568 10570 10570 10571 10573 10575 10576 10575 10573 10573 10572 10571 10570 10569 10568 10568 10568 10568 10569 10568 10565 10562 10560 10559 10557 10555 10553 10551 10549 10547 10544 10541 10539 10536 10535 10532 10528 10524 10520 10518 10515 10511 10508 10505 10501 10499 10496 10493
10479 10482 10484 10485 10488 10492 10495 10494 10488 10484 10500 10529 10538 10534 10537 10541 10537 10534 10539 10543 10541 10539 10541 10546 10554 10561 10559 10551 10547 10547 10549 10549 10545 10545 10547 10550 10553 10555 10555 10557 10557 10557 10558 10560 10562 10563 10562 10561 10560 10557 10556 10555 10554 10555 10555 10554 10554 10553 10550 10547 10545 10544 10541 10540 10539 10536 10534 10532 10530 10526 10524 10522 10521 10518 10515 10511 10508 10506 10503 10499 10496 10493 10489 10486 10484 10481
10470 10472 10472 10474 10475 10477 10480 10480 10475 10479 10499 10517 10520 10525 10533 10530 10524 10524 10525 10527 10529 10527 10528 10534 10542 10547 10543 10535 10534 10536 10536 10534 10534 10535 10535 10536 10539 10542 10543 10544 10544 10544 10545 10545 10546 10547 10547 10547 10546 10544 10543 10541 10540 10541 10541 10540 10540 10538 10535 10531 10529 10528 10526 10525 10524 10522 10519 10517 10515 10511 10509 10507 10506 10505 10501 10497 10494 10492 10489 10485 10483 10479 10475 10473 10471 10467
10459 10460 10460 10461 10462 10464 10466 10468 10469 10470 10481 10498 10511 10521 10524 10517 10512 10508 10503 10510 10520 10518 10517 10525 10531 10532 10526 10520 10520 10521 10520 10520 10523 10524 10525 10525 10527 10528 10529 10530 10530 10530 10530 10531 10532 10532 10532 10532 10531 10530 10529 10527 10526 10526 10526 10526 10525 10523 10520 10517 10514 10513 10511 10510 10509 10507 10504 10502 10499 10496 10494 10491 10491 10490 10487 10483 10480 10478 10475 10472 10469 10466 10462 10460 10458 10454
10448 10448 10448 10447 10448 10452 10451 10452 10455 10454 10467 10492 10506 10508 10507 10502 10496 10490 10486 10498 10514 10514 10510 10513 10514 10513 10510 10505 10506 10507 10506 10508 10512 10514 10514 10515 10514 10515 10516 10515 10515 10515 10515 10515 10516 10516 10516 10516 10515 10514 10513 10512 10510 10510 10510 10510 10509 10507 10504 10501 10499 10497 10495 10495 10493 10491 10489 10487 10483 10480 10477 10475 10474 10473 10471 10469 10466 10463 10461 10458 10455 10452 10449 10446 10444 10442
10433 10433 10433 10432 10433 10438 10438 10438 10441 10445 10462 10485 10491 10489 10489 10484 10480 10477 10472 10485 10508 10509 10496 10492 10493 10493 10492 10491 10493 10495 10495 10498 10502 10502 10502 10503 10503 10502 10502 10501 10501 10501 10500 10500 10501 10500 10500 10499 10498 10496 10495 10495 10493 10493 10493 10494 10493 10491 10488 10485 10483 10481 10480 10479 10477 10475 10474 10471 10468 10464 10462 10459 10458 10456 10455 10453 10451 10448 10446 10444 10441 10438 10435 10433 10431 10429
10420 10419 10419 10418 10420 10427 10427 10425 10427 10434 10450 10467 10472 10474 10475 10468 10462 10459 10457 10477 10501 10494 10475 10473 10476 10474 10476 10479 10481 10483 10484 10486 10489 10488 10489 10491 10490 10489 10489 10489 10488 10487 10487 10486 10486 10487 10486 10485 10483 10481 10480 10478 10478 10477 10477 10478 10477 10475 10473 10470 10468 10466 10465 10464 10462 10460 10459 10457 10454 10451 10447 10445 10443 10441 10439 10438 10436 10434 10432 10430 10428 10425 10422 10420 10417 10415
10406 10406 10407 10407 10409 10414 10414 10414 10416 10422 10436 10451 10456 10458 10459 10451 10443 10443 10452 10470 10480 10468 10458 10461 10460 10459 10464 10466 10466 10468 10470 10471 10473 10474 10474 10475 10474 10474 10475 10475 10474 10474 10473 10472 10472 10473 10473 10471 10469 10468 10465 10464 10463 10463 10463 10463 10463 10460 10458 10456 10453 10452 10452 10450 10448 10447 10445 10443 10441 10438 10435 10432 10429 10427 10425 10423 10422 10421 10418 10416 10414 10412 10409 10407 10404 10402
10394 10396 10396 10396 10399 10402 10404 10404 10402 10409 10428 10443 10442 10441 10442 10435 10427 10434 10445 10451 10449 10447 10448 10449 10446 10447 10451 10451 10452 10454 10455 10456 10458 10457 10457 10458 10459 10460 10459 10459 10460 10459 10458 10458 10457 10457 10458 10457 10455 10453 10451 10449 10448 10448 10448 10449 10448 10446 10443 10441 10439 10438 10438 10436 10434 10433 10432 10430 10427 10425 10422 10420 10417 10414 10412 10410 10408 10407 10405 10402 10400 10398 10395 10392 10390 10387
10383 10382 10381 10386 10390 10391 10391 10390 10388 10402 10426 10433 10422 10420 10424 10419 10414 10421 10429 10430 10430 10434 10437 10438 10438 10438 10437 10438 10439 10438 10437 10439 10441 10441 10442 10442 10444 10445 10444 10443 10444 10443 10442 10442 10441 10441 10443 10443 10441 10439 10436 10433 10432 10432 10433 10435 10435 10433 10430 10427 10425 10425 10424 10423 10421 10420 10419 10416 10414 10412 10410 10407 10404 10401 10399 10396 10394 10393 10391 10388 10385 10383 10380 10377 10374 10371
10367 10367 10371 10379 10383 10378 10375 10377 10381 10395 10409 10408 10400 10403 10408 10406 10406 10410 10412 10416 10421 10424 10425 10426 10426 10424 10422 10423 10422 10420 10421 10424 10425 10427 10429 10428 10429 10430 10429 10427 10427 10427 10426 10426 10424 10425 10427 10428 10428 10426 10423 10420 10417 10417 10418 10419 10421 10421 10417 10413 10412 10412 10412 10411 10409 10408 10406 10404 10402 10400 10397 10395 10392 10388 10385 10382 10379 10377 10375 10372 10369 10366 10363 10360 10356 10354
10355 10359 10362 10365 10366 10363 10360 10364 10371 10379 10386 10390 10392 10394 10392 10391 10395 10398 10399 10403 10406 10409 10412 10412 10409 10408 10407 10406 10405 10407 10409 10410 10411 10413 10414 10414 10414 10414 10413 10412 10412 10412 10411 10411 10409 10409 10410 10412 10413 10412 10410 10406 10402 10401 10402 10403 10404 10406 10404 10400 10398 10398 10398 10398 10397 10395 10393 10390 10387 10385 10383 10381 10378 10373 10370 10367 10363 10360 10357 10354 10351 10349 10345 10342 10339 10336
10343 10347 10347 10346 10347 10349 10349 10354 10362 10368 10374 10379 10381 10381 10379 10378 10380 10382 10384 10387 10389 10391 10394 10395 10394 10393 10392 10391 10393 10394 10395 10396 10397 10398 10398 10398 10399 10398 10398 10398 10397 10396 10397 10397 10395 10395 10396 10396 10397 10397 10397 10394 10388 10385 10386 10386 10386 10387 10388 10386 10383 10381 10381 10381 10381 10379 10377 10373 10370 10367 10365 10364 10362 10358 10353 10350 10346 10343 10340 10336 10333 10330 10327 10323 10320 10318
10331 10335 10336 10333 10333 10336 10340 10347 10353 10356 10358 10363 10366 10367 10368 10367 10367 10368 10370 10370 10371 10373 10375 10376 10378 10379 10379 10380 10381 10381 10381 10383 10384 10383 10384 10384 10383 10383 10383 10384 10383 10382 10382 10382 10381 10382 10382 10383 10383 10383 10383 10382 10377 10372 10371 10371 10370 10368 10368 10368 10366 10364 10363 10362 10361 10360 10359 10355 10351 10348 10346 10344 10343 10340 10336 10332 10328 10325 10322 10318 10315 10312 10309 10305 10302 10299
10320 10322 10322 10322 10323 10326 10331 10337 10342 10342 10344 10350 10353 10354 10353 10352 10352 10355 10355 10354 10354 10356 10357 10359 10362 10364 10365 10366 10367 10367 10369 10370 10370 10370 10370 10369 10369 10370 10370 10370 10370 10369 10368 10367 10367 10368 10368 10370 10370 10370 10371 10370 10365 10360 10358 10357 10355 10351 10348 10347 10346 10346 10346 10344 10341 10340 10339 10336 10332 10329 10326 10323 10322 10320 10317 10313 10310 10307 10304 10301 10298 10295 10292 10288 10284 10282
10304 10306 10309 10312 10314 10317 10321 10326 10329 10330 10331 10332 10333 10334 10334 10333 10335 10337 10339 10341 10343 10343 10343 10344 10345 10347 10349 10351 10352 10354 10354 10355 10356 10357 10356 10355 10355 10355 10355 10355 10355 10355 10354 10353 10353 10353 10354 10355 10355 10356 10357 10355 10351 10347 10344 10342 10339 10334 10330 10328 10327 10328 10328 10326 10323 10321 10319 10315 10312 10310 10307 10304 10302 10300 10298 10295 10292 10288 10285 10283 10280 10278 10275 10271 10268 10265
10290 10294 10300 10302 10302 10305 10310 10312 10312 10311 10312 10312 10314 10316 10317 10318 10321 10323 10324 10327 10329 10329 10330 10330 10330 10332 10334 10335 10337 10338 10339 10340 10341 10342 10342 10341 10340 10339 10339 10340 10340 10339 10339 10338 10337 10338 10338 10338 10338 10340 10340 10339 10335 10331 10329 10327 10323 10318 10313 10310 10310 10312 10311 10309 10307 10305 10301 10297 10293 10291 10289 10286 10283 10280 10278 10277 10274 10271 10267 10264 10262 10260 10258 10255 10251 10248
10280 10283 10286 10287 10288 10291 10294 10293 10291 10292 10294 10297 10300 10303 10304 10305 10306 10307 10307 10309 10311 10313 10315 10316 10316 10318 10319 10320 10322 10323 10324 10325 10325 10326 10327 10326 10324 10323 10323 10323 10323 10323 10322 10321 10321 10322 10322 10321 10320 10320 10320 10320 10318 10315 10313 10311 10308 10302 10296 10294 10295 10295 10294 10292 10290 10288 10286 10280 10276 10273 10271 10268 10266 10263 10260 10258 10255 10252 10249 10246 10243 10242 10240 10238 10234 10230